When you browse on this site, cookies collect data to enhance your experience and personalize the content and advertising you see.
Visit our Privacy Policy to learn more. By continuing to use the site, you agree to this use of cookies and data.
  • în România
  • Lista ţărilor
  • Pe 7 zile
  • Temperatura apei
  • Hartă satelitară
  • Meteo pe hartă
  • Widget-uri
  • user-avatar
    Intrare

    Meteo pe oră la Lelowice

    Astăzi, 27 Iunie, Joi

    Timp Temperatura Precipitaţii Vânt Presiune Umiditate
    00:00 +26°C° 0.2 mm 5 m/s 742 mmHg 80%
    01:00 +25°C° 0.2 mm 5 m/s 742 mmHg 82%
    02:00 +25°C° 0.5 mm 5 m/s 742 mmHg 85%
    03:00 +23°C° 0.5 mm 5 m/s 742 mmHg 89%
    04:00 +23°C° 0.5 mm 5 m/s 741 mmHg 92%
    05:00 +23°C° 0.3 mm 5 m/s 742 mmHg 89%
    06:00 +23°C° 0.3 mm 6 m/s 742 mmHg 87%
    07:00 +23°C° 0.3 mm 6 m/s 742 mmHg 84%
    08:00 +24°C° 0 mm 6 m/s 742 mmHg 78%
    09:00 +24°C° 0 mm 7 m/s 742 mmHg 72%
    10:00 +26°C° 0 mm 7 m/s 742 mmHg 66%
    11:00 +26°C° 0 mm 7 m/s 742 mmHg 60%
    12:00 +26°C° 0 mm 7 m/s 742 mmHg 55%
    13:00 +26°C° 0 mm 8 m/s 742 mmHg 50%
    14:00 +24°C° 0 mm 7 m/s 742 mmHg 51%
    15:00 +24°C° 0 mm 7 m/s 742 mmHg 52%
    16:00 +23°C° 0 mm 7 m/s 741 mmHg 53%
    17:00 +22°C° 0 mm 6 m/s 741 mmHg 58%
    18:00 +21°C° 0 mm 5 m/s 741 mmHg 63%
    19:00 +19°C° 0 mm 4 m/s 741 mmHg 68%
    20:00 +18°C° 0 mm 4 m/s 741 mmHg 70%
    21:00 +17°C° 0 mm 4 m/s 742 mmHg 72%
    22:00 +17°C° 0 mm 3 m/s 742 mmHg 74%
    23:00 +16°C° 0 mm 3 m/s 742 mmHg 80%

    Mâine, 28 Iunie, Vineri

    Timp Temperatura Precipitaţii Vânt Presiune Umiditate
    00:00 +14°C° 0 mm 3 m/s 742 mmHg 86%
    01:00 +14°C° 0 mm 3 m/s 743 mmHg 92%
    02:00 +13°C° 0 mm 3 m/s 743 mmHg 93%
    03:00 +13°C° 0 mm 4 m/s 743 mmHg 95%
    04:00 +13°C° 0 mm 4 m/s 743 mmHg 96%
    05:00 +14°C° 0 mm 4 m/s 743 mmHg 89%
    06:00 +15°C° 0 mm 4 m/s 743 mmHg 82%
    07:00 +17°C° 0 mm 4 m/s 744 mmHg 75%
    08:00 +18°C° 0 mm 4 m/s 744 mmHg 68%
    09:00 +19°C° 0 mm 5 m/s 744 mmHg 61%
    10:00 +20°C° 0 mm 5 m/s 744 mmHg 54%
    11:00 +21°C° 0 mm 5 m/s 744 mmHg 53%
    12:00 +21°C° 0 mm 5 m/s 744 mmHg 52%
    13:00 +22°C° 0 mm 5 m/s 743 mmHg 51%
    14:00 +22°C° 0 mm 5 m/s 743 mmHg 53%
    15:00 +22°C° 0 mm 4 m/s 743 mmHg 55%
    16:00 +22°C° 0 mm 4 m/s 743 mmHg 56%
    17:00 +21°C° 0.2 mm 4 m/s 743 mmHg 64%
    18:00 +20°C° 0.2 mm 3 m/s 743 mmHg 73%
    19:00 +19°C° 0.2 mm 3 m/s 743 mmHg 81%
    20:00 +17°C° 0.1 mm 2 m/s 743 mmHg 84%
    21:00 +16°C° 0.1 mm 2 m/s 743 mmHg 87%
    22:00 +15°C° 0.1 mm 2 m/s 744 mmHg 90%
    23:00 +13°C° 0 mm 3 m/s 744 mmHg 89%

    Poimâine, 29 Iunie, Sâmbătă

    Timp Temperatura Precipitaţii Vânt Presiune Umiditate
    00:00 +12°C° 0 mm 3 m/s 744 mmHg 87%
    01:00 +11°C° 0 mm 3 m/s 744 mmHg 86%
    02:00 +10°C° 0 mm 3 m/s 744 mmHg 86%
    03:00 +10°C° 0 mm 2 m/s 744 mmHg 86%
    04:00 +9°C° 0 mm 2 m/s 744 mmHg 87%
    05:00 +12°C° 0 mm 2 m/s 744 mmHg 80%
    06:00 +14°C° 0 mm 2 m/s 745 mmHg 74%
    07:00 +15°C° 0 mm 2 m/s 745 mmHg 68%
    08:00 +17°C° 0 mm 2 m/s 745 mmHg 62%
    09:00 +19°C° 0 mm 2 m/s 745 mmHg 57%
    10:00 +20°C° 0 mm 2 m/s 745 mmHg 51%
    11:00 +21°C° 0 mm 2 m/s 745 mmHg 50%
    12:00 +23°C° 0 mm 2 m/s 744 mmHg 48%
    13:00 +24°C° 0 mm 2 m/s 744 mmHg 47%
    14:00 +24°C° 0 mm 2 m/s 744 mmHg 47%
    15:00 +24°C° 0 mm 2 m/s 744 mmHg 48%
    16:00 +25°C° 0 mm 2 m/s 743 mmHg 48%
    17:00 +23°C° 0 mm 2 m/s 743 mmHg 54%
    18:00 +21°C° 0 mm 2 m/s 743 mmHg 60%
    19:00 +20°C° 0 mm 2 m/s 743 mmHg 66%
    20:00 +19°C° 0 mm 2 m/s 743 mmHg 68%
    21:00 +18°C° 0 mm 2 m/s 743 mmHg 69%
    22:00 +17°C° 0 mm 2 m/s 743 mmHg 70%
    23:00 +16°C° 0 mm 2 m/s 743 mmHg 71%

    30 Iunie, Duminică

    Timp Temperatura Precipitaţii Vânt Presiune Umiditate
    00:00 +16°C° 0 mm 2 m/s 743 mmHg 71%
    01:00 +16°C° 0 mm 2 m/s 743 mmHg 71%
    02:00 +15°C° 0 mm 2 m/s 743 mmHg 71%
    03:00 +15°C° 0 mm 2 m/s 743 mmHg 71%
    04:00 +15°C° 0 mm 2 m/s 743 mmHg 71%
    05:00 +17°C° 0 mm 2 m/s 743 mmHg 68%
    06:00 +19°C° 0 mm 2 m/s 743 mmHg 65%
    07:00 +21°C° 0 mm 2 m/s 743 mmHg 62%
    08:00 +24°C° 0 mm 2 m/s 743 mmHg 57%
    09:00 +25°C° 0 mm 2 m/s 743 mmHg 53%
    10:00 +27°C° 0 mm 2 m/s 744 mmHg 49%
    11:00 +28°C° 0 mm 2 m/s 743 mmHg 47%
    12:00 +29°C° 0 mm 2 m/s 743 mmHg 45%
    13:00 +30°C° 0 mm 2 m/s 742 mmHg 43%
    14:00 +30°C° 0 mm 2 m/s 742 mmHg 44%
    15:00 +30°C° 0 mm 2 m/s 742 mmHg 44%
    16:00 +30°C° 0 mm 2 m/s 742 mmHg 45%
    17:00 +29°C° 0 mm 2 m/s 742 mmHg 52%
    18:00 +27°C° 0 mm 2 m/s 741 mmHg 59%
    19:00 +26°C° 0 mm 2 m/s 741 mmHg 66%
    20:00 +24°C° 0 mm 2 m/s 741 mmHg 69%
    21:00 +23°C° 0 mm 2 m/s 741 mmHg 73%
    22:00 +20°C° 0 mm 2 m/s 741 mmHg 76%
    23:00 +20°C° 0 mm 2 m/s 741 mmHg 77%

    1 Iulie, Luni

    Timp Temperatura Precipitaţii Vânt Presiune Umiditate
    00:00 +19°C° 0 mm 3 m/s 741 mmHg 77%
    01:00 +19°C° 0 mm 3 m/s 741 mmHg 78%
    02:00 +19°C° 0 mm 3 m/s 740 mmHg 80%
    03:00 +18°C° 0 mm 3 m/s 740 mmHg 81%
    04:00 +18°C° 0 mm 3 m/s 740 mmHg 83%
    05:00 +20°C° 0 mm 4 m/s 740 mmHg 78%
    06:00 +22°C° 0 mm 4 m/s 740 mmHg 72%
    07:00 +25°C° 0 mm 5 m/s 740 mmHg 67%
    08:00 +26°C° 0 mm 5 m/s 740 mmHg 64%
    09:00 +28°C° 0 mm 5 m/s 740 mmHg 61%
    10:00 +29°C° 0 mm 5 m/s 740 mmHg 59%
    11:00 +30°C° 0 mm 5 m/s 740 mmHg 56%
    12:00 +32°C° 0 mm 5 m/s 739 mmHg 53%
    13:00 +33°C° 0 mm 5 m/s 739 mmHg 50%
    14:00 +33°C° 0.1 mm 5 m/s 739 mmHg 53%
    15:00 +32°C° 0.1 mm 5 m/s 739 mmHg 55%
    16:00 +32°C° 0.1 mm 4 m/s 738 mmHg 57%
    17:00 +27°C° 5.6 mm 4 m/s 738 mmHg 69%
    18:00 +24°C° 5.6 mm 3 m/s 738 mmHg 80%
    19:00 +19°C° 5.6 mm 3 m/s 738 mmHg 91%
    20:00 +19°C° 0.2 mm 3 m/s 738 mmHg 91%
    21:00 +19°C° 0.2 mm 3 m/s 738 mmHg 91%
    22:00 +18°C° 0.2 mm 3 m/s 739 mmHg 90%
    23:00 +18°C° 0.1 mm 2 m/s 739 mmHg 91%

    2 Iulie, Marţi

    Timp Temperatura Precipitaţii Vânt Presiune Umiditate
    00:00 +19°C° 0.1 mm 2 m/s 739 mmHg 91%
    01:00 +19°C° 0.1 mm 2 m/s 739 mmHg 92%
    02:00 +19°C° 0.1 mm 3 m/s 739 mmHg 92%
    03:00 +19°C° 0.1 mm 3 m/s 739 mmHg 92%
    04:00 +19°C° 0.1 mm 4 m/s 738 mmHg 93%
    05:00 +19°C° 0 mm 4 m/s 739 mmHg 87%
    06:00 +20°C° 0 mm 4 m/s 739 mmHg 81%
    07:00 +21°C° 0 mm 5 m/s 739 mmHg 76%
    08:00 +22°C° 0 mm 5 m/s 739 mmHg 71%
    09:00 +23°C° 0 mm 5 m/s 740 mmHg 67%
    10:00 +25°C° 0 mm 5 m/s 740 mmHg 63%
    11:00 +25°C° 0.1 mm 5 m/s 740 mmHg 61%
    12:00 +24°C° 0.1 mm 6 m/s 740 mmHg 59%
    13:00 +24°C° 0.1 mm 6 m/s 740 mmHg 57%
    14:00 +24°C° 0 mm 6 m/s 740 mmHg 55%
    15:00 +24°C° 0 mm 6 m/s 740 mmHg 53%
    16:00 +24°C° 0 mm 6 m/s 740 mmHg 51%
    17:00 +22°C° 0 mm 5 m/s 740 mmHg 56%
    18:00 +21°C° 0 mm 4 m/s 740 mmHg 62%
    19:00 +19°C° 0 mm 3 m/s 740 mmHg 68%
    20:00 +18°C° 0 mm 3 m/s 741 mmHg 69%
    21:00 +17°C° 0 mm 3 m/s 741 mmHg 71%
    22:00 +16°C° 0 mm 3 m/s 741 mmHg 72%
    23:00 +14°C° 0 mm 3 m/s 742 mmHg 75%
    Arată mai mult